Anniston, AL

6:55 AM CST on February 25, 2018 (GMT -0600)
Anniston Metro

Weather History for KANB - December, 2013

Change the Weather History Date:

Sunday, December 29, 2013

  Actual Average Record
Temperature  
Mean Temperature 45 °F 44 °F  
Max Temperature 53 °F 54 °F 74 °F (1984)
Min Temperature 37 °F 34 °F 16 °F (1952)
Degree Days  
Heating Degree Days 20    
Month to date heating degree days 495  
Since 1 July heating degree days 1024  
Moisture  
Dew Point 41 °F    
Average Humidity 84    
Maximum Humidity 100    
Minimum Humidity 68    
Precipitation  
Precipitation 0.07 in 0.12 in 1.58 in (1970)
Month to date precipitation 9.22 3.88  
Year to date precipitation 75.28 49.43  
Sea Level Pressure  
Sea Level Pressure 30.00 in    
Wind  
Wind Speed 3 mph (WSW)    
Max Wind Speed 10 mph    
Max Gust Speed 13 mph    
Visibility 7 miles    
Events Rain    
T = Trace of Precipitation, MM = Missing Value Source: NWS Daily Summary

Daily Weather History Graph

Daily Weather History Graph

Search for Another Location

Airport or City:

Trip Planner

Search our weather history database for the weather conditions in past years. The results will help you decide how hot, cold, wet, or windy it might be!

Date:

Astronomy

Dec. 29, 2013 Rise Set
Actual Time 6:47 AM CST 4:44 PM CST
Civil Twilight 6:19 AM CST 5:11 PM CST
Nautical Twilight 5:48 AM CST 5:42 PM CST
Astronomical Twilight 5:18 AM CST 6:13 PM CST
Moon 3:34 AM CST (12/29) 2:18 PM CST (12/29)
Length of Visible Light 10h 52m
Length of Day
9h 57m
Waning Crescent, 11% of the Moon is Illuminated
Dec 29
Waning Crescent
Jan 1
New
Jan 7
First Quarter
Jan 15
Full
Jan 23
Last Quarter

Hourly Weather History & Observations

Time (CST) Temp. Windchill Dew Point Humidity Pressure Visibility Wind Dir Wind Speed Gust Speed Precip Events Conditions
12:07 AM 44.1 °F 41.5 °F 42.1 °F 93% 29.92 in 3.0 mi NNE 4.6 mph - 0.01 in Rain Light Rain
12:53 AM 44.1 °F - 42.1 °F 93% 29.93 in 3.0 mi Calm Calm - 0.04 in Rain Light Rain
1:01 AM 44.1 °F 42.5 °F 42.1 °F 93% 29.90 in 2.5 mi ENE 3.5 mph - 0.00 in Rain Light Rain
1:21 AM 44.1 °F - 42.1 °F 93% 29.91 in 3.0 mi Calm Calm - 0.01 in   Overcast
1:38 AM 44.1 °F - 42.1 °F 93% 29.91 in 2.5 mi Calm Calm - 0.01 in Rain Light Rain
1:53 AM 44.1 °F - 42.1 °F 93% 29.95 in 2.0 mi Calm Calm - 0.02 in Rain Light Rain
2:33 AM 44.1 °F - 43.0 °F 96% 29.92 in 4.0 mi Calm Calm - 0.01 in   Overcast
2:41 AM 44.1 °F - 42.1 °F 93% 29.91 in 5.0 mi Calm Calm - 0.01 in   Overcast
2:48 AM 42.8 °F - 42.8 °F 100% 29.90 in 5.0 mi Calm Calm - 0.01 in   Overcast
2:53 AM 44.1 °F 42.5 °F 42.1 °F 93% 29.92 in 4.0 mi East 3.5 mph - 0.01 in   Overcast
3:06 AM 43.0 °F - 42.1 °F 97% 29.91 in 5.0 mi Calm Calm - N/A   Overcast
3:34 AM 44.1 °F 41.5 °F 42.1 °F 93% 29.92 in 10.0 mi West 4.6 mph - N/A   Overcast
3:53 AM 43.0 °F 39.5 °F 42.1 °F 97% 29.94 in 10.0 mi WNW 5.8 mph - 0.00 in Rain Light Rain
4:46 AM 43.0 °F 38.8 °F 41.0 °F 93% 29.92 in 10.0 mi WSW 6.9 mph - 0.00 in   Overcast
4:53 AM 43.0 °F 39.5 °F 42.1 °F 97% 29.95 in 10.0 mi WSW 5.8 mph - 0.00 in   Overcast
5:19 AM 43.0 °F 39.5 °F 41.0 °F 93% 29.93 in 9.0 mi SSW 5.8 mph - N/A   Overcast
5:53 AM 43.0 °F 41.3 °F 42.1 °F 97% 29.96 in 8.0 mi SW 3.5 mph - 0.00 in Rain Light Rain
6:04 AM 43.0 °F 38.8 °F 41.0 °F 93% 29.94 in 7.0 mi SW 6.9 mph - 0.00 in Rain Light Rain
6:53 AM 43.0 °F 39.5 °F 42.1 °F 97% 29.98 in 8.0 mi WSW 5.8 mph - 0.01 in Rain Light Rain
7:53 AM 44.1 °F 41.5 °F 42.1 °F 93% 30.01 in 8.0 mi SW 4.6 mph - 0.00 in   Overcast
8:53 AM 44.1 °F 40.1 °F 42.1 °F 93% 30.04 in 10.0 mi SW 6.9 mph - N/A   Overcast
9:53 AM 46.0 °F 42.5 °F 43.0 °F 89% 30.06 in 10.0 mi SW 6.9 mph - N/A   Overcast
10:44 AM 46.9 °F - 43.0 °F 86% 30.03 in 10.0 mi WSW 5.8 mph - N/A   Overcast
10:53 AM 46.9 °F - 43.0 °F 86% 30.04 in 10.0 mi WSW 4.6 mph - N/A   Overcast
11:53 AM 48.9 °F - 44.1 °F 83% 30.03 in 10.0 mi SW 6.9 mph - N/A   Overcast
12:53 PM 48.9 °F - 44.1 °F 83% 30.01 in 10.0 mi West 6.9 mph - N/A   Overcast
1:31 PM 50.0 °F - 43.0 °F 77% 29.99 in 10.0 mi West 8.1 mph - N/A   Overcast
1:53 PM 50.0 °F - 44.1 °F 80% 30.01 in 10.0 mi West 4.6 mph - N/A   Overcast
2:53 PM 51.1 °F - 42.1 °F 71% 30.01 in 10.0 mi WSW 8.1 mph - N/A   Scattered Clouds
3:03 PM 52.0 °F - 42.1 °F 69% 30.00 in 10.0 mi Variable 5.8 mph - N/A   Mostly Cloudy
3:28 PM 52.0 °F - 39.9 °F 63% 30.00 in 10.0 mi WNW 4.6 mph - N/A   Scattered Clouds
3:53 PM 52.0 °F - 41.0 °F 66% 30.02 in 10.0 mi Calm Calm - N/A   Clear
4:53 PM 46.0 °F - 41.0 °F 83% 30.04 in 10.0 mi Calm Calm - N/A   Clear
5:51 PM 42.8 °F - 39.2 °F 87% 30.04 in 9.0 mi Calm Calm - N/A   Mostly Cloudy
5:53 PM 42.1 °F - 39.9 °F 92% 30.06 in 6.0 mi Calm Calm - N/A   Scattered Clouds
6:30 PM 39.9 °F - 39.0 °F 97% 30.06 in 2.0 mi Calm Calm - N/A   Clear
6:39 PM 39.9 °F - 39.0 °F 97% 30.06 in 3.0 mi Calm Calm - N/A   Clear
6:43 PM 39.9 °F - 37.9 °F 93% 30.06 in 1.8 mi Calm Calm - N/A   Clear
6:53 PM 39.9 °F - 37.9 °F 93% 30.09 in 1.2 mi Calm Calm - N/A   Clear
7:03 PM 41.0 °F - 39.0 °F 93% 30.07 in 3.0 mi Calm Calm - N/A   Clear
7:53 PM 41.0 °F - 39.0 °F 93% 30.09 in 10.0 mi Calm Calm - N/A   Clear
8:53 PM 39.9 °F - 39.0 °F 97% 30.11 in 8.0 mi Calm Calm - N/A   Clear
9:18 PM 39.0 °F - 37.9 °F 96% 30.08 in 2.0 mi Calm Calm - N/A   Clear
9:27 PM 39.9 °F - 37.9 °F 93% 30.09 in 10.0 mi Calm Calm - N/A   Clear
9:53 PM 39.9 °F 36.7 °F 37.9 °F 93% 30.11 in 9.0 mi West 4.6 mph - N/A   Clear
10:53 PM 37.9 °F 35.5 °F 37.0 °F 97% 30.13 in 9.0 mi SW 3.5 mph - N/A   Clear
11:53 PM 37.0 °F - 36.0 °F 96% 30.12 in 7.0 mi Calm Calm - N/A   Scattered Clouds